sat.trackr.live / text

‹ back to catalog

STARLINK-35124

NORAD 65511 · 2025-198V

PAYLOAD ACTIVE UNKNOWN

§ Identity

Operator
Country
US
Launch date
2025-09-05
Launch site
AFETR
Launch vehicle
Mass (kg)
RCS (m²)

Purposes: comms

External: N2YO · Heavens-Above · Gunter

§ Orbital elements

Epoch: 2026-05-24T19:55:04.388160Z

Period
93.85 min
Inclination
53.1595°
Eccentricity
0.0000950
Mean motion
15.34411763 rev/d
Perigee alt
462.0 km
Apogee alt
463.3 km
Semi-major
6,840.8 km
B*
1.0348e-3
RAAN
276.1854°
Arg perigee
107.4907°
Mean anomaly
252.6200°
Rev number
4,028

§ Raw data

STARLINK-351241 65511U 25198V   26144.82991190  .00034762  00000+0  10348-2 0  99982 65511  53.1595 276.1854 0000950 107.4907 252.6200 15.34411763 40289

JSON: /api/v1/satellites/65511 · /tle

For live sub-satellite position, see the globe view (requires WebGL).

§ Visibility from observer

Set your observer location to see the next 7 days of passes ≥ 10°. The values pass through the URL so the page stays shareable.

No JS? Fill the form by hand. The geolocation button needs JavaScript.